FW0800 Weather Reports


time (UTC)temp
C
wind
direction
speed
KPH
gust
KPH
rain 1hr
cm
rain 24hr
cm
rain mn
cm
humidity
%
barometer
mb
20260906174944 29 122 6.4 20.9 0.00 0.00 0.00 63 1020.6
20260906171945 28 148 4.8 19.3 0.00 0.00 0.00 66 1020.8
20260906164942 28 150 4.8 16.1 0.00 0.00 0.00 68 1021.1
20260906154941 26 94 4.8 17.7 0.00 0.00 0.00 72 1021.4
20260906151941 26 145 4.8 17.7 0.00 0.00 0.00 75 1021.6
20260906144940 24 217 4.8 12.9 0.00 0.00 0.00 83 1021.5
20260906141940 22 140 3.2 11.3 0.00 0.00 0.00 91 1021.3
20260906134940 21 105 3.2 12.9 0.00 0.00 0.00 96 1021.3
20260906131934 20 131 1.6 6.4 0.00 0.00 0.00 96 1021.3
20260906124934 20 67 1.6 4.8 0.00 0.00 0.00 96 1021.3
20260906121935 18 202 0.0 0.0 0.00 0.00 0.00 95 1021.2
20260906114932 18 202 0.0 0.0 0.00 0.00 0.00 95 1021.1
20260906111930 18 202 0.0 0.0 0.00 0.00 0.00 95 1021.0
20260906101929 18 204 0.0 0.0 0.00 0.00 0.00 94 1020.5
20260906094929 18 204 0.0 0.0 0.00 0.00 0.00 94 1020.3
20260906091929 19 204 0.0 3.2 0.00 0.00 0.00 94 1020.0
20260906084929 19 200 0.0 3.2 0.00 0.00 0.00 94 1019.8
20260906081930 19 202 0.0 3.2 0.00 0.00 0.00 94 1019.9
20260906074930 19 202 0.0 3.2 0.00 0.00 0.00 94 1020.0
20260906071927 19 202 0.0 1.6 0.00 0.00 0.00 93 1020.1
20260906064927 19 202 0.0 0.0 0.00 0.00 0.00 92 1020.4
20260906054925 20 202 0.0 0.0 0.00 0.00 0.00 90 1020.2
20260906051925 21 202 0.0 0.0 0.00 0.00 0.00 87 1020.3
20260906044925 22 202 0.0 0.0 0.00 0.00 0.00 85 1020.2
20260906041922 22 202 0.0 3.2 0.00 0.00 0.00 85 1020.3
20260906034922 22 202 0.0 3.2 0.00 0.00 0.00 86 1020.4
20260906031922 22 202 1.6 8.0 0.00 0.00 0.00 88 1020.6
20260906014920 23 51 0.0 0.0 0.00 0.00 0.00 81 1019.4
20260906011920 24 51 0.0 0.0 0.00 0.00 0.00 79 1018.6
20260906001918 26 51 1.6 6.4 0.00 0.00 0.00 72 1017.8
20260905234918 27 331 3.2 14.5 0.00 0.00 0.00 70 1018.0
20260905231918 28 55 4.8 14.5 0.00 0.00 0.00 66 1017.8
20260905224917 29 325 4.8 20.9 0.00 0.00 0.00 64 1017.8
20260905221917 29 44 4.8 17.7 0.00 0.00 0.00 61 1017.4
20260905214918 30 355 4.8 14.5 0.00 0.00 0.00 60 1017.6
20260905194917 28 110 4.8 11.3 0.00 0.00 0.00 66 1019.7
20260905191918 28 73 3.2 11.3 0.00 0.00 0.00 67 1020.0